Regional Weather Roundup
Issued by NWS Goodland, KS

Home | Current Version | Previous Version | Text Only | Print | Product List | Glossary On
Versions: 1 2 3 4 5 6 7 8 9 10 11 12 13 14 15 16 17 18 19 20 21 22 23 24 25 26 27 28 29 30 31 32 33 34 35 36 37 38 39 40 41 42 43 44 45 46 47 48 49 50
000
ASUS43 KGLD 230208
RWRGLD

GOODLAND FORECAST AREA HOURLY WEATHER ROUNDUP
NATIONAL WEATHER SERVICE GOODLAND KS
800 PM MDT FRI AUG 22 2014

...OFFICIAL OBSERVATIONS...

CITY           SKY/WX    TMP DP  RH WIND       PRES   REMARKS
GOODLAND KS    CLOUDY    66  64  93 NW5       29.99R
HILL CITY KS   CLOUDY    70  67  90 E8        29.90F
IMPERIAL NEB   LGT RAIN  70  65  84 N9        29.95F
MCCOOK NEB     TSTM      71  63  75 E12       29.91R
AKRON CO       LGT RAIN  60  59  96 NW15      30.08R
BURLINGTON CO  LGT RAIN  66  63  90 W5        30.03R
LIMON CO       CLOUDY    60  58  92 N20       30.04F
$$

...UNOFFICIAL OBSERVATIONS...

CITY           SKY/WX    TMP DP  RH WIND       PRES   REMARKS
COLBY KS       LGT RAIN  68  68 100 N13       29.92S
NORTON KS      MOCLDY    70  61  73 SW3       29.93R
SHARON SPRINGS   N/A     68  65  89 NW15G24     N/A
WAKEENEY KS      N/A     70  66  88 MISG        N/A
KIT CARSON CO    N/A     62  59  91 MISG        N/A
YUMA CO          N/A     65  60  83 N12         N/A
$$


USA.gov is the U.S. government's official web portal to all federal, state and local government web resources and services.